Showing default

JILIN-01-09, 43943

Orbit data source: Space-Track

JILIN-01-09, 43943 is a payload satellite owned by Changguang WJ (CN) in SSO that was launched on Mon, 21 Jan 2019 UTC via a CHANG ZHENG 11 launch vehicle from the Jiuquan Satellite Launch Center, China (JSC). Payload-class satellites include a variety of spacecraft equipped with specific instruments for various scientific and technological missions. These include communications satellites like Starlink; space stations such as the ISS; scientific satellites like the Hubble; Earth observation satellites from companies like Planet Labs, Umbra, and HawkEye 360; GPS; miniature CubeSats for education and research; and military/defense satellites.

Loading next visibility...
Identifier
43943, 2019-005B
Orbit
SSO
Country
Flag of CNCN / PRC
Related business
Manufacturer
CIOMP
Mission
Operational Commercial Imaging
Bus & Motor
JL-1, Unknown motor
Mass
95 kg wet, 95 kg dry
Launch date (UTC)
2019-01-21 (7 years ago)
Launch vehicle
CHANG ZHENG 11
Launch site
Jiuquan Satellite Launch Center, China (JSC)
Object type
Payload
Rocket body
Debris
Shape & HBR
Box + 2 Pan, 0.8 m
Radar Cross Section
2.000 m², Large (>1 m²)

Expand to show TLE details & history
Last TLE update: 2 days ago

TLE from 2 days ago
0 JILIN-01-09
1 43943U 19005B   26171.40465000  .00003891  00000-0  18102-3 0  9990
2 43943  97.4738 266.3398 0003755  88.4396 271.7269 15.20537595409636
Epoch: 2026-06-20T09:42Z
TLE epoch observation values (Epoch: 2026-06-20T09:42:41.759Z)
Latitude
-0.00009°
Longitude
-147.95394°
Altitude
507.23 km
Speed
7.61 km/s
True Right ascension
17h 45m 21s
True Declination
0° 00' 00"
Sunlit
Object was in full shadow at epoch
Visualization orbit readout
Latitude
Unknown
Longitude
Unknown
Altitude
Unknown
Speed
Unknown
Apparent Right ascension
Unknown
Apparent Declination
Unknown
Sunlit
N/A
Visualization observer readout
Local Sidereal Time
23:09:16
Azimuth
Unknown
Elevation
Unknown
Doppler factor
Unknown
Orbital elements
Apogee altitude
503.769 km
Perigee altitude
498.603 km
Semi-major axis
6,879.323 km
Eccentricity
0.00038
Inclination
97.4738°
RAAN
266.3398°
Arg. of periapsis
88.4396°
True anomaly
271.68389°
Mean anomaly
271.7269°
Eccentric anomaly
271.70539°
Mean motion
3.80386 °/min
Orbital period
94.64 mins
BSTAR
0.00018102
Loading maneuver chart data...
Computing Atmospheric mass density...
Loading historical data...
Loading historical data...
Loading historical data...
Loading historical data...
Loading historical data...
Loading historical data...
Loading historical data...

Documentation

Showing up to 5 results
|